Location: Karlsruhe
(49.0131°N, 8.3874°E)
Time: 23:29:03
(UTC+01:00)

ISS - Pass Details

Date: 11 November 2017
Orbit: 402 x 407 km, 51.6° (Epoch: 24 November)

Event Time Altitude Azimuth Distance (km) Brightness Sun altitude
Exits shadow 05:09:50 39° 54° (NE) 620 -2.6 -23.0°
Drops below altitude 10° 05:12:12 10° 83° (E) 1,457 0.1 -22.6°
Sets 05:14:19 0° 88° (E) 2,316 1.5 -22.2°
